FW9150 Weather Reports


time (UTC)temp
F
wind
direction
speed
knots
gust
knots
rain 1hr
in
rain 24hr
in
rain mn
in
humidity
%
barometer
mb
20260505093131 37 225 0.0 0.0 0.02 0.57 0.09 95 1015.0
20260505092131 37 225 0.0 0.0 0.03 0.57 0.08 95 1015.3
20260505091132 37 225 0.0 0.0 0.03 0.56 0.08 95 1015.2
20260505090130 37 225 0.0 0.0 0.03 0.56 0.08 94 1015.3
20260505085131 37 225 0.0 0.0 0.03 0.55 0.07 94 1015.3
20260505084132 37 225 0.0 0.0 0.04 0.55 0.07 95 1015.4
20260505083130 38 225 0.0 0.0 0.04 0.55 0.07 94 1015.6
20260505081133 38 225 0.0 0.0 0.04 0.53 0.05 94 1015.8
20260505080133 38 225 0.0 0.0 0.05 0.53 0.05 95 1015.7
20260505074133 38 225 0.0 0.0 0.04 0.51 0.03 95 1015.8
20260505073133 39 225 0.0 0.0 0.05 0.51 0.02 95 1015.8
20260505072130 39 225 0.0 0.0 0.05 0.50 0.02 94 1015.8
20260505071131 39 225 0.0 0.0 0.05 0.49 0.01 95 1015.8
20260505070230 39 225 0.0 0.0 0.05 0.49 0.00 94 1015.8
20260505065329 39 225 0.0 0.0 0.05 0.48 0.48 95 1015.8
20260505064329 39 225 0.0 0.0 0.05 0.47 0.47 95 1015.8
20260505063329 38 225 0.0 0.0 0.06 0.47 0.47 94 1015.7
20260505062328 39 225 0.0 0.0 0.06 0.46 0.45 95 1015.9
20260505060330 39 225 0.0 0.0 0.06 0.44 0.44 94 1015.9
20260505055330 39 225 0.0 0.0 0.05 0.43 0.43 94 1015.8
20260505054328 39 225 0.0 0.0 0.04 0.42 0.42 95 1015.9
20260505053328 39 225 0.0 0.0 0.03 0.41 0.41 94 1016.0
20260505052328 39 172 0.0 0.9 0.02 0.40 0.40 95 1015.8
20260505050329 39 157 0.0 0.0 0.00 0.38 0.38 93 1016.0
20260505041429 39 157 0.0 0.0 0.01 0.38 0.38 94 1015.9
20260505035528 39 157 0.0 0.0 0.01 0.38 0.38 93 1015.8
20260505034528 39 180 0.9 1.7 0.01 0.38 0.38 94 1015.8
20260505033529 39 135 0.0 0.0 0.01 0.38 0.38 94 1015.8
20260505031527 39 135 0.0 0.0 0.00 0.37 0.37 93 1015.5
20260505030545 39 135 0.0 0.0 0.00 0.37 0.37 93 1015.4
20260505025530 39 135 0.0 0.0 0.00 0.37 0.37 94 1015.4
20260505024627 39 135 0.0 0.0 0.00 0.37 0.37 94 1015.4
20260505023630 39 135 0.0 0.0 0.00 0.37 0.37 93 1015.4
20260505022629 39 135 0.0 0.0 0.00 0.37 0.37 94 1015.4
20260505021630 39 135 0.0 0.0 0.00 0.37 0.37 94 1015.6
20260505020728 39 67 0.0 0.0 0.00 0.37 0.37 93 1015.8
20260505015728 39 67 0.0 0.0 0.00 0.37 0.37 93 1015.9
20260505014827 39 67 0.0 0.0 0.00 0.37 0.37 93 1016.0
20260505013828 40 45 0.0 0.0 0.01 0.37 0.37 93 1016.0
20260505012829 39 157 0.0 0.0 0.01 0.37 0.37 93 1016.1
20260505011829 39 157 0.0 0.0 0.01 0.37 0.37 94 1016.1
20260505010829 40 157 0.0 1.7 0.01 0.37 0.37 93 1016.1
20260505005928 40 180 0.0 0.0 0.01 0.37 0.37 94 1016.1
20260505004928 40 180 0.0 0.9 0.01 0.37 0.37 93 1016.2
20260505004830 40 194 0.9 2.6 0.01 0.37 0.37 93 1016.2
20260505003830 40 175 0.9 3.5 0.00 0.36 0.36 93 1016.0
20260505001927 41 180 0.0 0.0 0.00 0.36 0.36 93 1016.1
20260505000930 41 157 0.9 2.6 0.00 0.36 0.36 94 1016.2
20260504235928 41 157 0.0 0.0 0.00 0.36 0.36 94 1016.1
20260504234931 41 157 0.0 0.0 0.00 0.36 0.36 94 1016.2
20260504233927 41 157 0.0 0.0 0.00 0.36 0.36 93 1016.2
20260504232928 41 157 0.9 1.7 0.01 0.36 0.36 93 1016.2
20260504232027 41 157 0.0 0.0 0.01 0.36 0.36 93 1016.3
20260504231029 40 157 0.0 0.0 0.02 0.36 0.36 93 1016.4
20260504230027 40 157 0.0 0.0 0.04 0.36 0.36 92 1016.4
20260504225029 40 157 0.0 0.9 0.06 0.36 0.36 92 1016.6
20260504224030 40 180 0.0 0.9 0.08 0.36 0.36 92 1016.7
20260504223029 40 225 0.0 0.0 0.09 0.35 0.35 92 1016.6
20260504222128 41 135 0.0 0.0 0.10 0.35 0.35 93 1016.8
20260504220328 41 135 0.0 0.9 0.10 0.33 0.32 93 1016.7
20260504215329 41 135 0.0 0.0 0.08 0.30 0.30 93 1016.7
20260504214329 41 135 0.0 0.0 0.09 0.28 0.28 93 1016.8
20260504213427 41 135 0.0 0.0 0.08 0.27 0.27 93 1016.7
20260504212527 41 135 0.0 0.0 0.08 0.25 0.25 92 1016.7
20260504210527 41 135 0.0 0.9 0.08 0.24 0.24 93 1016.8
20260504205529 41 135 0.0 0.0 0.06 0.22 0.22 93 1016.5
20260504204628 41 135 0.0 0.0 0.05 0.21 0.21 91 1016.7
20260504203628 41 135 0.0 0.0 0.03 0.19 0.19 92 1016.6
20260504202627 42 112 0.0 0.0 0.01 0.17 0.17 92 1016.6
20260504201628 42 360 0.0 0.0 0.00 0.16 0.16 92 1016.5
20260504200629 42 360 0.0 0.0 0.00 0.16 0.16 92 1016.4
20260504195627 42 112 0.0 0.0 0.00 0.16 0.16 92 1016.7
20260504194727 42 180 0.0 0.0 0.00 0.16 0.16 92 1016.6
20260504193729 42 180 0.0 0.0 0.00 0.16 0.16 92 1016.7
20260504191829 43 135 0.0 1.7 0.00 0.16 0.16 92 1016.4
20260504190928 43 138 0.0 0.9 0.00 0.16 0.16 91 1016.4
20260504185929 43 198 0.9 2.6 0.00 0.16 0.16 91 1016.4
20260504184928 43 157 0.0 0.0 0.00 0.16 0.16 91 1016.6
20260504182929 43 157 0.0 0.9 0.00 0.16 0.16 91 1016.7
20260504181028 44 135 0.0 0.9 0.00 0.16 0.16 91 1016.7
20260504180127 44 135 0.0 0.0 0.00 0.16 0.16 91 1016.6
20260504175128 44 135 0.0 0.0 0.00 0.16 0.16 91 1016.9
20260504174128 44 135 0.0 0.0 0.00 0.16 0.16 92 1016.6
20260504173227 43 157 0.0 0.0 0.01 0.16 0.16 92 1016.2
20260504172230 43 157 0.0 0.0 0.01 0.16 0.16 92 1016.2
20260504171328 43 135 0.0 0.0 0.01 0.16 0.16 91 1016.2
20260504160227 41 135 0.0 0.0 0.11 0.15 0.15 93 1016.0
20260504150228 41 135 0.0 0.0 0.04 0.04 0.04 92 1016.2
20260504140327 42 157 0.0 0.0 0.00 0.00 0.00 92 1015.8
20260504130327 44 135 0.0 0.0 0.00 0.00 0.00 90 1015.4
20260504110429 44 135 0.0 0.0 0.00 0.00 0.00 91 1015.5